Temp
22 22 22 22 22 22 22 22 22 20 19 22 22 22 22 23 22 21 22 21 21 21 20 20 20 20 19 19 19 19 19 19 19 19 19 19 19 18
22 21 21 21 21 21 21 22 21 21 20 22 22 22 22 22 22 22 21 21 21 21 20 20 20 20 20 19 19 19 19 19 19 20 20 19 19 19
21 21 21 21 21 21 21 21 21 21 20 21 21 21 21 22 21 21 20 20 21 20 20 20 20 19 19 19 19 19 19 19 19 19 19 20 20 19
22 21 21 21 21 21 21 20 21 21 20 20 21 21 21 21 21 21 20 20 20 20 20 19 19 19 19 19 18 18 18 18 18 18 18 19 19 19
22 22 22 21 21 20 20 20 20 20 20 19 20 20 20 20 20 20 20 20 20 20 19 19 18 18 18 18 18 17 17 17 17 18 18 18 18 18
22 22 22 21 21 21 20 20 20 20 19 19 18 19 18 19 19 19 19 19 19 19 19 18 18 18 17 17 17 17 17 17 17 17 17 17 17 17
22 22 22 21 21 21 21 21 20 20 19 18 18 17 17 18 18 18 18 18 18 18 18 18 18 18 18 17 17 17 17 17 17 17 17 16 16 16
22 22 21 21 21 21 21 20 20 20 19 18 18 17 17 18 18 18 17 16 16 17 17 17 17 17 17 17 17 17 17 17 16 16 16 16 16 16
22 21 21 21 21 21 21 20 20 19 19 19 18 18 19 19 18 17 17 16 15 16 15 14 16 16 17 17 17 17 17 16 16 16 16 15 15 15
23 22 22 21 21 21 20 20 20 20 20 20 19 19 19 18 18 17 17 15 15 16 15 13 15 16 16 17 17 17 17 16 16 16 16 15 15 15
22 21 21 21 21 20 20 19 19 19 19 19 18 18 18 18 17 16 15 14 14 14 15 13 15 15 15 16 16 16 16 15 15 15 15 15 15 14
19 20 21 20 20 19 19 19 19 19 19 18 18 17 17 17 16 16 16 14 13 14 16 14 15 14 15 15 15 15 15 15 15 15 14 15 14 13
18 19 19 19 19 19 19 19 20 20 19 18 17 17 17 17 17 16 16 16 15 14 15 14 13 13 12 12 14 15 15 15 15 14 14 14 13 13
19 20 20 19 19 19 19 19 19 18 18 17 17 17 17 17 16 16 16 16 16 15 15 14 12 13 12 11 12 14 15 15 15 14 13 13 13 13
21 20 20 19 19 19 19 19 18 18 18 17 16 17 17 16 16 15 15 15 15 15 15 14 14 13 13 12 11 12 12 13 13 13 11 11 10 10
19 19 19 19 19 19 18 18 17 17 17 17 16 16 16 15 15 15 15 15 15 15 15 15 14 13 13 13 12 12 13 11 11 11 10 10 10 10
18 17 18 18 18 17 16 16 16 16 16 16 16 16 15 15 14 14 14 14 13 13 14 14 14 14 14 13 12 13 12 11 11 10 9 10 9 9
17 16 16 17 17 16 15 15 15 15 15 16 15 15 15 14 14 13 13 13 12 12 12 13 13 13 13 14 14 13 11 10 10 9 8 8 9 9
17 16 16 16 16 16 16 16 16 16 16 16 15 15 14 14 14 13 13 12 12 12 13 13 12 10 11 13 12 12 10 10 9 9 9 8 8 7
18 17 17 17 16 16 16 17 16 16 16 15 15 14 14 14 13 13 12 12 11 11 12 13 12 10 9 11 9 10 10 9 9 8 8 7 7 6
16 16 17 17 17 17 17 17 17 17 17 16 15 14 14 13 13 13 12 12 12 11 11 12 13 12 12 10 10 11 10 10 9 7 7 7 7 6
17 17 17 17 17 17 17 17 17 16 16 15 14 14 13 13 13 13 12 12 11 11 11 12 13 12 11 10 10 9 9 9 8 7 6 6 5 5
17 17 17 18 18 17 17 17 17 16 15 15 14 14 13 13 13 12 12 12 11 11 11 11 12 12 11 10 8 9 8 8 7 7 7 6 5 4
Height
843 844 847 849 850 850 850 851 851 856 856 854 856 857 857 857 858 859 860 861 861 862 862 862 862 861 860 860 859 858 857 855 854 854 853 853 853 852
840 841 843 845 847 848 849 849 850 851 853 852 853 855 856 857 857 858 858 859 859 859 859 858 857 856 855 854 853 852 851 851 849 849 848 848 848 848
837 838 839 841 842 845 847 848 848 850 850 851 852 853 854 856 857 857 857 856 856 855 854 854 853 852 850 849 848 847 846 845 844 844 843 842 842 842
831 833 836 839 839 840 842 845 846 847 849 849 849 850 851 853 854 854 853 853 851 851 850 849 849 848 846 845 843 841 841 840 839 838 838 837 836 836
825 827 830 833 834 837 839 840 843 844 845 845 845 846 847 848 849 849 849 849 848 847 846 846 844 843 842 840 838 837 836 836 834 834 833 832 831 831
819 823 826 827 829 832 835 837 838 839 841 842 843 843 845 846 845 845 844 842 843 844 843 842 840 839 838 837 836 834 833 831 830 828 828 827 826 825
813 817 819 822 825 826 828 830 834 834 835 837 838 840 839 841 841 839 838 838 837 836 836 837 836 835 833 832 831 830 828 827 827 825 824 822 821 821
804 807 811 814 818 818 821 824 828 829 828 829 829 832 834 835 836 836 836 835 835 833 832 832 832 830 829 828 825 824 824 822 822 821 819 817 816 816
794 797 802 805 808 811 814 816 819 822 823 825 825 827 828 830 830 830 830 831 832 829 828 828 827 825 823 822 820 820 818 817 817 816 814 812 810 809
784 787 792 795 799 803 806 809 812 816 817 818 818 820 821 822 823 824 824 826 826 826 826 825 822 820 819 817 816 815 813 812 810 809 808 806 804 803
775 779 783 787 791 796 800 803 806 809 812 813 814 817 817 818 818 819 819 822 823 821 821 821 818 816 815 813 811 811 809 807 805 803 802 800 799 795
766 771 773 779 785 791 794 799 803 806 809 810 810 813 815 814 814 815 816 818 821 819 818 819 815 814 811 809 808 807 804 802 800 798 797 794 792 788
761 764 768 771 778 784 789 793 797 802 805 808 810 809 811 810 810 810 811 813 813 815 815 815 813 811 810 806 803 802 799 796 794 792 790 788 786 784
757 760 761 764 769 776 780 785 791 796 800 802 806 806 808 808 808 809 811 811 812 810 811 811 810 808 806 804 800 795 793 791 788 785 783 781 778 775
752 759 758 759 764 770 776 781 786 792 795 796 798 803 804 806 805 806 809 808 807 807 807 807 805 804 802 799 796 792 788 784 782 779 777 774 771 767
748 757 753 757 764 768 772 780 784 787 788 792 795 798 801 802 803 803 804 804 803 803 804 803 802 800 797 794 792 787 784 781 778 775 772 768 763 759
749 749 747 754 760 767 773 775 782 785 790 790 793 794 798 800 800 799 798 800 800 800 800 800 798 795 792 790 787 783 779 777 774 771 767 761 756 750
751 741 743 751 757 764 771 771 778 782 784 788 791 791 794 796 796 796 795 795 797 797 797 796 794 791 788 786 783 778 776 774 771 766 761 755 745 740
744 735 743 756 756 763 766 769 774 778 780 782 786 789 792 794 794 792 791 792 792 793 793 792 791 789 787 781 778 776 775 771 766 761 756 749 741 730
730 732 743 751 755 759 763 765 769 775 776 780 780 784 789 791 789 789 790 789 789 790 789 789 787 786 784 781 777 772 771 767 763 756 748 741 733 723
733 736 740 746 749 757 760 762 766 772 774 776 777 780 785 786 785 784 785 786 786 787 787 785 784 782 779 777 774 770 767 763 759 753 745 737 725 714
731 737 739 744 745 750 755 761 765 770 772 773 775 777 780 781 784 782 782 781 783 783 783 781 780 778 776 774 771 768 763 757 752 747 742 737 728 713
730 734 735 742 743 749 754 759 765 768 768 771 771 772 775 774 777 780 780 779 779 780 779 777 777 775 773 772 769 766 761 754 747 739 735 730 723 714
Wind_Speed
15 15 14 12 9 9 9 8 6 2 2 4 5 5 4 5 7 12 11 13 15 16 16 16 16 17 19 20 19 19 18 17 17 17 17 16 14 14
17 17 18 16 14 12 10 11 11 9 2 5 6 5 4 3 4 6 7 8 10 12 14 14 15 16 16 17 19 21 19 17 18 19 20 19 19 18
21 20 19 18 17 16 14 12 11 11 7 4 6 7 9 6 6 7 8 8 9 10 11 12 11 10 11 12 13 14 16 17 18 19 21 22 22 22
26 24 21 18 19 17 16 15 13 11 9 8 6 8 9 7 6 8 8 5 8 12 12 9 12 15 16 17 17 16 17 17 17 15 14 14 17 20
30 28 25 23 23 20 18 17 17 15 13 12 11 10 7 7 8 7 8 13 14 15 13 14 15 16 13 15 15 16 18 18 17 18 18 18 17 17
33 30 27 26 24 23 21 19 18 18 16 14 12 11 10 8 7 8 14 14 15 17 15 15 13 9 12 11 12 12 11 10 11 11 14 16 18 19
35 32 28 25 23 23 24 22 20 18 17 16 15 11 11 11 11 7 13 18 23 18 15 13 11 14 15 12 13 12 12 13 13 13 16 16 13 14
37 36 31 29 26 27 24 22 23 23 21 20 20 16 13 10 9 9 11 12 6 13 8 13 17 18 18 18 16 16 16 16 16 18 18 16 18 20
36 35 31 30 30 28 25 22 22 22 20 19 19 16 14 12 10 12 14 15 12 18 15 12 17 20 20 17 15 15 17 18 18 18 17 17 17 20
34 32 27 29 30 28 25 22 19 19 18 17 20 20 16 13 12 13 13 13 14 17 16 6 14 18 13 14 15 16 19 19 18 19 18 17 19 22
34 28 24 25 24 22 21 20 19 18 14 13 14 15 14 13 12 10 9 7 5 9 13 6 7 11 16 18 12 12 14 18 18 17 19 19 21 22
32 26 24 22 18 16 18 17 18 17 13 13 16 15 11 8 7 9 9 7 5 3 5 6 10 9 6 15 11 16 16 18 18 15 17 19 19 22
26 29 24 19 16 14 14 14 13 13 14 13 13 11 9 6 5 5 5 7 7 8 11 9 8 10 8 8 14 20 20 21 19 20 20 17 20 22
28 28 22 19 15 14 14 14 13 15 13 13 12 12 9 8 8 7 6 6 8 9 12 13 11 14 10 7 11 18 21 21 20 20 16 20 25 26
26 24 20 18 16 14 14 15 15 17 16 16 15 14 10 8 7 6 7 7 7 9 10 13 14 14 14 15 12 15 13 14 16 14 17 19 20 23
24 21 20 17 14 13 13 13 16 18 20 17 15 12 10 8 6 7 7 7 8 11 8 12 12 13 16 15 15 17 17 9 10 15 17 20 22 24
25 23 21 18 15 14 15 16 17 17 17 15 14 12 10 9 8 8 6 6 6 7 11 12 14 16 11 14 15 20 15 11 13 17 22 24 24 25
27 24 21 20 20 18 19 19 18 18 16 13 12 10 10 10 8 6 4 4 5 7 10 13 15 13 12 18 18 18 11 13 17 20 22 22 28 30
21 22 22 21 20 22 22 21 19 17 13 12 11 9 10 9 7 6 5 4 4 7 10 12 12 6 6 9 15 8 11 16 18 22 23 24 28 34
23 27 25 24 24 24 21 18 15 14 13 12 10 10 11 10 8 6 5 3 4 6 9 12 11 10 6 6 9 15 16 17 19 24 26 27 30 32
24 25 25 27 24 20 17 17 16 14 13 12 12 12 13 11 8 6 4 3 3 5 7 10 14 13 14 12 10 16 15 23 23 22 24 24 27 34
26 26 26 25 22 19 20 18 16 15 13 13 13 12 14 11 9 7 5 4 4 5 9 14 13 11 9 7 13 16 21 24 23 23 21 17 24 14
28 28 25 21 20 23 22 20 16 14 14 15 15 14 14 14 12 8 6 5 4 5 7 10 12 10 8 10 11 14 21 25 25 28 23 21 29 33
Wind_Direction
228 226 230 233 231 225 222 215 186 189 248 251 227 237 258 267 262 259 262 262 269 274 276 280 287 295 295 288 291 291 292 294 295 295 291 287 287 292
232 228 227 229 231 231 233 230 230 223 209 229 241 228 220 219 240 254 261 265 274 276 277 281 285 288 289 282 280 282 276 282 284 284 285 280 274 272
231 231 228 227 226 229 227 224 221 219 219 250 245 242 235 245 260 271 279 289 294 294 288 286 284 290 298 294 286 280 277 280 283 284 280 275 271 266
230 230 230 227 228 224 226 228 228 229 226 234 252 249 246 256 264 288 290 283 306 310 302 268 287 298 296 291 289 289 284 278 274 279 288 282 272 267
234 231 230 226 232 230 228 227 232 232 234 233 238 242 245 256 278 297 309 314 316 318 298 289 296 300 299 302 296 291 286 281 278 281 282 283 282 277
240 237 236 233 235 238 236 240 239 236 237 238 241 243 254 261 255 291 311 317 309 313 299 297 294 275 305 293 298 296 299 300 296 293 294 290 287 286
243 242 239 241 245 247 241 240 240 236 235 236 242 245 243 250 258 270 304 309 305 311 300 291 289 294 304 292 296 294 282 287 290 293 298 297 288 285
243 244 239 239 241 245 248 247 247 244 238 230 238 236 250 250 273 287 301 314 315 308 283 291 296 291 293 295 291 291 284 284 283 292 296 296 289 285
243 245 241 239 239 243 247 248 250 249 247 244 243 233 246 253 271 284 298 286 270 283 290 283 290 293 298 296 288 287 288 288 286 288 290 295 296 294
242 243 243 245 244 242 243 241 244 244 245 247 242 249 244 265 266 280 281 275 277 286 287 262 293 290 303 301 296 294 292 292 289 289 291 297 301 295
237 234 236 239 239 239 239 235 237 238 241 248 239 240 245 263 264 261 257 252 271 287 295 257 275 283 298 301 299 295 292 292 290 286 293 294 307 309
229 227 219 226 226 225 226 228 237 241 232 219 220 230 244 235 247 258 261 249 251 278 284 233 288 298 294 299 301 307 305 304 294 289 303 303 307 318
211 211 210 206 206 206 216 222 238 245 222 221 215 215 208 223 243 230 194 224 226 255 286 277 283 285 271 292 299 313 310 312 306 298 302 300 307 310
212 210 194 186 185 200 210 226 224 226 214 202 199 193 193 188 183 204 228 241 265 277 291 287 276 283 282 287 285 303 307 309 308 306 303 306 309 311
202 193 171 166 174 185 188 192 200 212 209 195 193 196 196 195 200 217 237 260 273 300 300 294 294 295 288 276 282 294 300 304 306 308 311 311 307 307
175 176 162 163 172 179 186 202 206 208 205 203 193 192 197 212 228 237 257 268 296 313 304 303 310 308 299 297 295 293 305 295 303 312 311 308 306 304
171 164 153 159 160 177 188 190 194 196 202 192 192 195 207 224 236 235 244 273 293 299 308 314 317 315 301 310 300 308 306 305 310 313 317 308 303 302
184 161 157 166 171 181 185 180 188 192 196 201 207 210 218 232 225 225 253 272 280 299 304 319 324 322 315 316 318 310 310 314 311 312 311 305 304 308
184 165 170 184 183 191 184 181 188 197 199 205 210 217 224 221 221 245 225 235 283 307 317 320 324 317 304 306 315 302 297 312 310 314 313 307 304 303
182 178 184 187 184 181 184 186 180 182 187 203 206 211 208 218 202 199 213 241 293 312 315 322 318 314 280 294 307 303 324 324 319 317 317 312 306 309
186 185 184 179 178 186 192 181 175 179 191 197 197 204 216 205 202 204 217 263 293 308 306 310 322 316 312 310 299 307 314 329 329 320 319 316 315 315
182 180 175 182 184 187 178 176 173 183 193 198 209 217 215 219 218 212 235 245 272 292 301 318 328 324 323 309 306 310 319 325 328 323 320 312 304 315
179 180 178 188 186 179 176 177 181 195 202 212 215 218 225 212 206 220 231 244 272 299 317 328 330 325 324 322 318 321 327 332 333 330 331 329 327 325